Wind_Speed
20 20 20 20 20 20 21 21 21 21 21 21 21 21 21 21 21 21 21 21 22 22 22 22 22 23 23 23 23 23 24 24 25 25 25 26 26 26
23 24 24 24 25 25 25 26 26 26 26 26 26 26 26 25 25 25 25 25 25 25 26 26 26 26 26 26 26 26 26 27 27 27 27 28 28 28
27 27 28 28 28 29 30 30 30 30 30 30 30 30 30 30 30 30 30 30 30 29 29 29 29 29 30 30 30 30 30 30 30 30 30 30 30 30
30 31 32 32 33 33 33 34 34 33 33 33 33 33 33 34 34 34 34 33 33 33 33 33 33 33 33 34 34 34 34 34 34 33 33 33 33 33
33 34 36 36 36 36 37 37 37 37 36 36 36 37 37 37 37 37 37 37 37 37 37 37 37 37 37 37 37 37 37 37 37 37 37 37 37 37
35 37 38 39 39 39 39 39 40 41 41 41 40 40 41 41 41 41 41 41 41 41 41 41 41 41 41 42 42 42 42 42 41 41 41 40 40 40
38 39 40 41 41 41 41 42 43 43 44 44 43 43 44 45 45 45 45 45 45 45 45 45 46 45 45 46 46 46 46 46 45 45 44 44 44 43
39 40 42 43 43 43 44 45 46 46 46 46 46 47 47 48 48 49 48 48 47 47 49 49 50 49 49 49 50 50 50 50 49 49 49 48 48 47
42 43 45 46 46 46 47 47 48 49 49 49 48 49 49 50 51 51 52 52 51 52 54 53 53 53 53 53 54 54 54 54 53 53 52 52 52 51
42 44 46 46 46 47 48 49 50 50 52 52 52 52 52 53 55 56 56 56 57 57 59 58 57 57 58 58 58 58 58 58 58 58 57 56 55 55
42 44 46 47 47 48 49 50 50 51 52 53 54 55 56 57 59 60 61 61 61 61 62 64 63 63 63 62 62 63 63 63 63 62 61 60 59 58
43 44 45 46 47 49 50 51 52 53 54 55 56 57 59 61 63 64 65 66 67 66 67 68 68 69 68 67 67 68 68 68 67 67 66 65 64 63
45 46 47 48 50 51 52 54 55 56 57 59 60 62 64 65 67 69 70 71 72 72 72 74 74 74 75 73 73 73 74 73 73 73 72 70 69 68
48 49 51 52 53 55 56 58 59 60 62 64 65 66 68 69 71 72 74 75 76 76 77 78 79 79 79 78 77 77 77 77 77 77 76 75 74 73
50 52 53 55 56 57 58 60 61 62 64 65 66 67 68 69 70 72 74 75 76 77 78 80 81 81 81 80 79 78 78 78 78 78 79 79 78 77
52 53 55 56 56 58 59 60 61 61 62 62 62 63 64 65 67 68 69 70 70 70 72 74 75 77 77 77 77 76 76 76 75 76 77 78 78 78
55 56 57 57 58 59 59 60 60 60 59 59 59 60 60 60 60 61 61 62 62 61 61 62 64 65 66 67 67 66 67 68 69 71 72 73 74 74
58 58 58 59 59 58 58 57 57 56 55 55 55 55 54 54 54 53 54 53 51 51 51 52 53 54 55 56 57 59 60 61 62 64 65 67 68 69
58 58 58 57 56 55 53 52 51 50 50 49 48 48 47 47 46 46 46 46 45 43 43 44 45 46 48 48 48 51 53 54 56 57 58 60 60 61
56 55 54 53 51 50 48 46 45 44 43 42 42 41 41 41 40 40 40 40 39 39 39 39 41 42 43 43 43 44 46 48 48 49 50 51 52 53
52 50 48 47 45 43 41 40 39 38 38 37 37 36 36 35 35 35 35 35 35 35 36 36 37 38 39 40 39 38 38 40 42 43 43 44 45 47
45 43 42 40 38 36 35 35 34 33 33 33 32 32 32 32 32 32 32 31 31 32 32 32 33 33 34 35 35 34 33 34 36 37 38 39 39 39
39 37 35 34 32 31 30 30 29 29 29 29 29 29 29 29 29 29 28 28 28 28 29 29 29 29 29 30 30 29 28 28 29 30 31 31 32 34
Wind_Direction
266 267 269 271 272 274 275 276 276 276 276 276 275 274 272 271 269 268 268 268 267 266 265 266 266 267 267 267 267 267 267 266 267 266 266 265 264 264
269 269 270 272 273 274 275 276 276 276 275 275 274 273 272 271 270 269 268 268 268 267 266 266 266 266 266 266 267 267 267 267 266 266 266 266 265 265
271 272 272 273 274 274 275 276 276 276 275 274 273 273 272 272 271 271 270 269 268 267 267 266 266 266 266 266 266 266 266 266 266 266 266 265 265 265
273 274 274 275 275 275 276 276 276 276 275 274 273 272 271 271 271 270 270 269 268 268 268 267 267 267 266 266 265 266 266 265 265 265 265 265 265 266
273 274 275 275 275 275 276 276 275 275 274 274 272 271 269 269 269 269 269 268 268 268 268 268 267 267 267 266 266 265 265 265 265 265 265 266 266 266
274 275 275 274 275 275 276 275 275 274 274 273 272 271 270 270 269 268 268 268 267 268 267 267 267 266 267 266 266 266 265 264 264 264 264 265 265 265
276 276 276 274 275 276 276 276 276 276 275 275 273 272 271 270 269 268 268 268 268 268 268 267 267 267 266 266 266 266 265 264 264 264 264 264 264 265
276 276 276 275 273 275 276 276 276 276 276 276 276 274 271 271 270 270 270 269 268 268 268 268 269 269 268 267 266 265 265 264 264 264 264 264 264 264
276 277 276 275 274 274 275 275 276 276 276 276 276 274 273 272 271 271 270 270 270 269 269 269 269 269 269 268 267 266 265 265 264 264 264 264 264 264
277 278 278 276 274 275 275 275 276 277 277 276 276 275 274 273 273 272 271 271 271 271 271 270 269 268 268 268 267 267 267 266 266 265 265 264 264 264
279 279 279 278 277 276 276 276 277 278 278 278 278 276 275 275 275 274 273 273 272 272 271 271 270 269 268 267 267 267 266 266 266 266 265 265 264 263
280 280 280 280 280 278 278 277 278 278 278 277 277 276 276 275 275 274 274 274 273 272 272 272 271 270 269 267 267 266 266 265 265 265 264 264 264 263
281 281 282 281 281 280 279 279 279 279 278 277 277 277 277 276 274 274 274 274 274 273 273 272 272 271 270 268 266 266 265 265 264 263 263 263 262 262
283 283 283 283 283 282 282 282 281 281 279 278 277 277 277 276 276 275 275 275 275 274 273 273 272 271 271 269 267 266 266 265 264 263 262 261 260 260
285 285 285 285 285 284 284 284 283 283 282 281 280 279 278 277 277 276 276 276 276 275 275 274 273 272 271 271 269 268 267 266 265 263 262 260 259 258
287 287 287 286 286 286 286 286 286 285 284 283 282 281 281 280 280 279 279 278 277 277 276 276 275 274 272 271 270 269 267 266 265 264 262 260 259 258
289 289 288 288 289 289 288 288 287 287 286 285 284 283 283 282 282 282 282 282 280 279 277 277 276 276 275 274 272 271 269 267 266 265 263 261 259 257
290 290 290 290 290 290 289 289 289 288 288 288 287 286 285 285 284 284 285 285 284 283 282 280 278 277 277 276 275 273 271 270 268 266 264 262 259 257
292 292 292 292 292 291 290 290 290 289 289 290 289 288 288 288 287 287 287 287 287 286 285 284 282 281 280 278 276 276 275 272 270 267 265 263 261 257
295 294 294 294 293 292 291 291 291 291 291 291 291 291 291 291 290 290 290 289 288 287 288 287 286 285 284 282 280 278 277 275 271 269 267 264 261 257
296 296 296 295 294 293 293 293 293 293 293 293 293 294 294 294 293 294 293 292 292 291 291 290 289 288 287 287 286 284 280 277 274 271 268 266 261 257
298 298 297 297 296 296 296 296 296 296 296 296 296 296 296 296 296 297 296 295 295 295 295 296 294 292 291 291 291 289 284 279 275 273 271 267 263 258
299 299 299 299 298 298 299 299 299 299 300 300 300 300 301 300 300 300 300 300 301 300 300 300 299 297 296 295 295 294 290 283 279 276 273 269 263 258
Height
5866 5866 5866 5866 5866 5866 5866 5866 5866 5865 5865 5864 5863 5862 5861 5861 5860 5860 5859 5859 5859 5858 5858 5858 5857 5857 5857 5857 5857 5856 5856 5856 5856 5857 5857 5857 5857 5858
5861 5861 5861 5861 5861 5861 5861 5860 5860 5860 5859 5858 5857 5856 5855 5855 5854 5854 5853 5853 5852 5852 5851 5851 5851 5851 5850 5850 5850 5850 5850 5849 5849 5850 5850 5850 5850 5851
5855 5855 5855 5855 5854 5854 5854 5853 5853 5853 5852 5851 5850 5849 5848 5848 5847 5846 5846 5845 5845 5844 5844 5844 5843 5843 5843 5843 5843 5842 5842 5842 5842 5842 5842 5842 5842 5843
5848 5848 5847 5847 5847 5846 5846 5845 5845 5844 5844 5843 5842 5841 5840 5839 5839 5838 5837 5836 5836 5836 5835 5835 5835 5835 5834 5834 5834 5834 5834 5833 5833 5833 5833 5833 5834 5834
5839 5839 5838 5838 5837 5837 5836 5836 5835 5834 5834 5833 5832 5831 5830 5829 5829 5828 5827 5827 5826 5826 5826 5826 5825 5825 5825 5824 5824 5824 5824 5824 5824 5824 5824 5824 5824 5825
5830 5829 5828 5827 5827 5826 5825 5825 5824 5823 5822 5822 5822 5820 5820 5819 5818 5817 5817 5816 5816 5816 5815 5815 5814 5814 5814 5813 5813 5813 5812 5812 5813 5813 5813 5813 5814 5814
5820 5819 5818 5817 5816 5815 5814 5813 5812 5811 5810 5810 5809 5808 5808 5806 5805 5805 5805 5805 5804 5804 5803 5802 5802 5802 5801 5801 5801 5800 5800 5800 5800 5801 5801 5802 5802 5803
5810 5808 5807 5805 5804 5803 5802 5801 5800 5798 5797 5796 5796 5795 5795 5793 5792 5791 5790 5790 5791 5792 5789 5789 5788 5788 5788 5787 5787 5786 5786 5786 5787 5787 5787 5788 5789 5790
5800 5798 5796 5794 5793 5791 5790 5788 5787 5785 5784 5783 5782 5781 5780 5779 5778 5777 5775 5775 5775 5776 5773 5774 5774 5773 5772 5771 5771 5771 5771 5771 5771 5772 5773 5773 5774 5775
5788 5786 5784 5782 5781 5779 5777 5776 5774 5772 5770 5769 5768 5766 5764 5763 5762 5761 5759 5759 5760 5758 5755 5756 5757 5756 5756 5755 5755 5754 5754 5754 5755 5755 5756 5757 5758 5759
5776 5774 5772 5770 5768 5766 5764 5762 5760 5757 5755 5753 5752 5750 5748 5746 5744 5742 5741 5740 5741 5741 5738 5736 5737 5736 5737 5738 5737 5736 5736 5736 5736 5737 5738 5739 5740 5741
5765 5762 5759 5756 5754 5751 5749 5747 5745 5742 5740 5737 5735 5733 5730 5728 5725 5723 5722 5720 5720 5721 5719 5716 5715 5713 5716 5719 5718 5716 5716 5716 5716 5717 5718 5719 5720 5721
5752 5749 5746 5743 5740 5737 5734 5732 5729 5726 5723 5720 5718 5715 5712 5709 5706 5703 5700 5698 5698 5698 5696 5692 5692 5690 5690 5694 5696 5695 5693 5694 5694 5695 5696 5698 5699 5701
5738 5735 5732 5728 5725 5721 5718 5714 5711 5708 5704 5701 5698 5695 5691 5688 5685 5681 5678 5675 5673 5673 5671 5667 5666 5665 5664 5666 5669 5670 5669 5668 5669 5670 5672 5674 5676 5678
5724 5720 5716 5712 5708 5704 5700 5696 5692 5688 5684 5681 5677 5673 5670 5666 5662 5659 5655 5652 5650 5647 5644 5641 5638 5638 5637 5638 5641 5642 5642 5643 5642 5643 5645 5647 5651 5654
5708 5704 5699 5695 5691 5686 5682 5677 5672 5668 5664 5660 5656 5652 5648 5644 5640 5636 5633 5629 5627 5624 5619 5615 5612 5610 5611 5612 5613 5615 5615 5615 5616 5615 5616 5620 5624 5628
5691 5686 5682 5677 5672 5667 5663 5658 5653 5649 5644 5640 5636 5632 5628 5624 5620 5616 5612 5607 5604 5602 5599 5594 5589 5587 5587 5588 5589 5590 5589 5590 5590 5590 5590 5593 5598 5602
5673 5669 5664 5659 5654 5649 5645 5640 5635 5630 5626 5622 5617 5613 5609 5606 5602 5598 5593 5589 5586 5583 5580 5576 5572 5569 5568 5569 5568 5567 5567 5567 5567 5566 5566 5568 5574 5578
5656 5651 5646 5641 5636 5632 5627 5623 5618 5614 5609 5605 5601 5597 5593 5590 5586 5582 5578 5575 5571 5568 5564 5560 5556 5553 5552 5553 5552 5548 5546 5545 5545 5545 5545 5546 5550 5556
5638 5633 5628 5624 5619 5615 5611 5607 5603 5599 5595 5591 5587 5583 5579 5576 5573 5569 5565 5561 5558 5555 5552 5548 5543 5539 5536 5536 5536 5534 5529 5526 5525 5526 5526 5527 5530 5533
5621 5617 5612 5608 5604 5600 5597 5593 5590 5586 5583 5579 5575 5572 5568 5564 5561 5558 5554 5550 5546 5543 5540 5536 5532 5527 5524 5521 5520 5520 5516 5512 5509 5509 5509 5510 5512 5515
5607 5603 5599 5595 5591 5588 5585 5582 5579 5575 5572 5568 5565 5561 5558 5554 5551 5547 5544 5540 5536 5532 5529 5525 5521 5517 5513 5510 5507 5505 5503 5500 5497 5495 5495 5496 5497 5500
5595 5591 5588 5584 5581 5578 5575 5572 5569 5566 5563 5559 5556 5552 5549 5545 5542 5538 5534 5531 5527 5524 5520 5516 5512 5508 5504 5500 5497 5494 5491 5489 5486 5485 5485 5484 5485 5488